This is the latest recevied weather packets stored in our database for station/object VE2XOX. If no packets are shown the sender has not sent any weather packets the latest 10 day(s).
| Time | Temp. | Humidity | Pressure | Rain* | Wind** | Luminosity | Snow |
|---|---|---|---|---|---|---|---|
| 1777599023 | 8.33° C | 91% | 1005.9 hPa | 8.89 mm | - | - | - |
| 1777598729 | 8.33° C | 91% | 1005.9 hPa | 7.87 mm | - | - | - |
| 1777598413 | 8.33° C | 91% | 1005.9 hPa | 7.87 mm | - | - | - |
| 1777598125 | 8.33° C | 91% | 1005.8 hPa | 7.87 mm | - | - | - |
| 1777597814 | 8.33° C | 91% | 1005.8 hPa | 7.11 mm | - | - | - |
| 1777597521 | 8.89° C | 91% | 1005.8 hPa | 6.1 mm | - | - | - |
| 1777597227 | 8.89° C | 91% | 1005.8 hPa | 6.1 mm | - | - | - |
| 1777596912 | 8.89° C | 91% | 1005.7 hPa | 3.05 mm | - | - | - |
| 1777596618 | 8.89° C | 91% | 1005.8 hPa | 2.03 mm | - | - | - |
| 1777596329 | 8.89° C | 91% | 1005.6 hPa | 2.03 mm | - | - | - |
| 1777596015 | 8.89° C | 91% | 1005.5 hPa | 2.03 mm | - | - | - |
| 1777595721 | 8.89° C | 91% | 1005.6 hPa | 3.05 mm | - | - | - |
| 1777595429 | 8.89° C | 91% | 1005.5 hPa | 2.03 mm | - | - | - |
| 1777595137 | 8.89° C | 91% | 1005.4 hPa | 3.05 mm | - | - | - |
| 1777594817 | 8.89° C | 91% | 1005.3 hPa | 4.06 mm | - | - | - |
| 1777594522 | 8.89° C | 91% | 1005.3 hPa | 4.06 mm | - | - | - |
| 1777594227 | 8.89° C | 91% | 1005.3 hPa | 5.08 mm | - | - | - |
| 1777593921 | 8.89° C | 91% | 1005.4 hPa | 5.08 mm | - | - | - |
| 1777593624 | 8.89° C | 91% | 1005.5 hPa | 6.1 mm | - | - | - |
| 1777593336 | 8.89° C | 91% | 1005.4 hPa | 6.1 mm | - | - | - |
| 1777593021 | 8.89° C | 91% | 1005.4 hPa | 6.1 mm | - | - | - |
| 1777592726 | 8.89° C | 91% | 1005.5 hPa | 7.11 mm | - | - | - |
| 1777592437 | 8.89° C | 91% | 1005.5 hPa | 7.11 mm | - | - | - |
| 1777592122 | 8.89° C | 91% | 1005.5 hPa | 7.11 mm | - | - | - |
| 1777591823 | 8.89° C | 91% | 1005.5 hPa | 7.11 mm | - | - | - |
* Rain latest hour (hover to see other rain measurements)
** Current wind speed in m/s (hover to see current wind gust speed)